Вернуться в каталог

DIANJIAN-1

АктивенНаукаSSO
NORAD 69098·PAYLOAD·🇨🇳 China
Это название спутника еще не подтверждено официальными источниками.

Запущен May 15, 2026 с Jiuquan Satellite Launch Center

Loading…

Ближайшие Пролёты (ближайшие 24 часа)

TLE

СвежийSource: Space-Track

Эпоха: Sep 14, 2026, 13:29 UTC

1 69098U 26106B   26257.56193611  .00003363  00000-0  20924-3 0  9996
2 69098  97.5028 337.7742 0013873 209.5162 150.5286 15.10215037 18466

Отслеживайте DIANJIAN-1 в реальном времени с AllMySat

Download on the App Store